FW8938 Weather Reports


time (UTC)temp
C
wind
direction
speed
KPH
gust
KPH
rain 1hr
cm
rain 24hr
cm
rain mn
cm
humidity
%
barometer
mb
20260510190059 20 229 12.9 25.7 0.00 0.00 0.00 42 1020.8
20260510184604 20 163 17.7 32.2 0.00 0.00 0.00 42 1020.7
20260510183104 19 157 14.5 22.5 0.00 0.00 0.00 45 1020.2
20260510181610 19 216 9.7 20.9 0.00 0.00 0.00 44 1020.5
20260510180056 19 202 14.5 25.7 0.00 0.00 0.00 46 1020.2
20260510174557 18 204 11.3 25.7 0.00 0.00 0.00 46 1020.1
20260510173058 18 150 14.5 29.0 0.00 0.00 0.00 46 1020.2
20260510171558 18 200 14.5 25.7 0.00 0.00 0.00 47 1020.1
20260510170059 18 225 14.5 24.1 0.00 0.00 0.00 50 1019.9
20260510164600 18 197 11.3 30.6 0.00 0.00 0.00 50 1020.1
20260510163059 17 136 12.9 20.9 0.00 0.00 0.00 53 1020.0
20260510161556 17 193 16.1 30.6 0.00 0.00 0.00 51 1019.7
20260510160101 17 227 8.0 29.0 0.00 0.00 0.00 52 1019.7
20260510154555 17 235 20.9 32.2 0.00 0.00 0.00 51 1019.4
20260510153057 17 161 14.5 25.7 0.00 0.00 0.00 54 1019.5
20260510151552 16 175 14.5 32.2 0.00 0.00 0.00 58 1019.7
20260510150055 16 221 17.7 29.0 0.00 0.00 0.00 59 1019.7
20260510144554 16 205 16.1 25.7 0.00 0.00 0.00 59 1019.7
20260510143059 16 202 12.9 29.0 0.00 0.00 0.00 63 1019.4
20260510141557 16 223 16.1 27.4 0.00 0.00 0.00 65 1019.2
20260510140057 16 212 12.9 27.4 0.00 0.00 0.00 67 1018.9
20260510134604 16 217 17.7 27.4 0.00 0.00 0.00 70 1018.9
20260510133052 16 208 12.9 25.7 0.00 0.00 0.00 73 1018.7
20260510131552 15 214 14.5 25.7 0.00 0.00 0.00 76 1018.4
20260510130051 15 150 9.7 27.4 0.00 0.00 0.00 78 1018.1
20260510124602 15 218 9.7 17.7 0.00 0.00 0.00 79 1017.7
20260510123059 15 218 8.0 19.3 0.00 0.00 0.00 80 1017.6
20260510121552 14 211 6.4 11.3 0.00 0.00 0.00 81 1017.4
20260510120051 14 221 4.8 11.3 0.00 0.00 0.00 81 1017.4
20260510114552 14 185 3.2 9.7 0.00 0.00 0.00 81 1017.0
20260510113053 14 207 4.8 9.7 0.00 0.00 0.00 81 1016.7
20260510111553 14 182 4.8 11.3 0.00 0.00 0.00 81 1016.5
20260510110052 14 219 3.2 8.0 0.00 0.00 0.00 82 1016.2
20260510104554 14 205 1.6 6.4 0.00 0.00 0.00 81 1016.3
20260510103100 15 165 6.4 11.3 0.00 0.00 0.00 79 1016.0
20260510101606 15 186 3.2 12.9 0.00 0.00 0.00 76 1015.9
20260510094556 16 145 1.6 6.4 0.00 0.00 0.00 71 1015.3
20260510093052 16 198 3.2 4.8 0.00 0.00 0.00 68 1015.2
20260510091554 17 192 4.8 9.7 0.00 0.00 0.00 65 1015.4
20260510090058 17 122 1.6 6.4 0.00 0.00 0.00 64 1015.1
20260510084605 17 0 0.0 1.6 0.00 0.03 0.00 65 1014.6
20260510083054 16 0 0.0 0.0 0.00 0.03 0.00 65 1014.6
20260510081600 16 0 0.0 0.0 0.00 0.03 0.00 70 1014.7
20260510080056 16 0 0.0 0.0 0.00 0.03 0.00 68 1014.8
20260510074610 16 0 0.0 0.0 0.00 0.03 0.00 69 1014.7
20260510073105 15 0 0.0 0.0 0.00 0.03 0.00 68 1014.5
20260510071558 15 0 0.0 0.0 0.00 0.03 0.00 72 1014.7
20260510070058 15 0 0.0 0.0 0.00 0.03 0.00 73 1014.6
20260510064600 15 0 1.6 6.4 0.00 0.03 0.00 72 1014.6
20260510063105 15 0 0.0 0.0 0.00 0.03 0.00 70 1014.6
20260510061603 16 0 0.0 0.0 0.00 0.03 0.00 68 1014.6
20260510060059 16 0 0.0 0.0 0.00 0.03 0.00 66 1014.7
20260510054601 17 0 0.0 1.6 0.00 0.03 0.00 63 1014.7
20260510053054 17 0 0.0 14.5 0.00 0.03 0.00 61 1014.9
20260510051555 17 157 11.3 17.7 0.00 0.03 0.00 64 1014.6
20260510050057 17 46 1.6 4.8 0.00 0.03 0.00 62 1014.0
20260510044553 17 59 0.0 1.6 0.00 0.03 0.03 62 1013.9
20260510043056 17 0 0.0 1.6 0.00 0.03 0.03 60 1013.8
20260510041620 17 0 0.0 0.0 0.00 0.03 0.03 59 1013.5
20260510040056 17 0 0.0 4.8 0.00 0.03 0.03 60 1013.4
20260510034559 17 40 0.0 1.6 0.00 0.05 0.03 63 1013.5
20260510033106 17 0 0.0 0.0 0.00 0.05 0.03 64 1013.5
20260510031555 17 0 0.0 0.0 0.00 0.05 0.03 64 1013.5
20260510030055 18 0 0.0 0.0 0.00 0.05 0.03 58 1013.4
20260510024609 19 0 0.0 0.0 0.00 0.08 0.03 56 1013.1
20260510023059 18 0 0.0 1.6 0.00 0.08 0.03 56 1012.7
20260510021555 18 0 0.0 0.0 0.00 0.08 0.03 58 1012.6
20260510020054 19 0 0.0 0.0 0.00 0.08 0.03 55 1012.2
20260510014615 20 0 0.0 0.0 0.00 0.08 0.03 54 1012.0
20260510013104 21 0 0.0 0.0 0.00 0.08 0.03 50 1011.7
20260510011556 22 0 0.0 0.0 0.00 0.08 0.03 49 1011.4
20260510010057 24 0 0.0 1.6 0.00 0.08 0.03 43 1011.3
20260510004603 25 0 0.0 0.0 0.00 0.08 0.03 41 1011.2
20260510003052 25 0 0.0 1.6 0.00 0.08 0.03 38 1011.0
20260510001552 25 0 0.0 3.2 0.00 0.08 0.03 35 1011.0
20260510000056 26 69 3.2 6.4 0.00 0.08 0.03 35 1011.0
20260509234549 26 66 0.0 8.0 0.00 0.08 0.03 35 1010.9
20260509233053 26 40 3.2 14.5 0.00 0.08 0.03 33 1011.0
20260509231605 26 53 6.4 16.1 0.00 0.08 0.03 33 1011.0
20260509230054 26 82 3.2 12.9 0.00 0.08 0.03 31 1011.0
20260509224554 27 105 4.8 9.7 0.00 0.08 0.03 32 1011.0
20260509223053 26 105 3.2 12.9 0.00 0.08 0.03 33 1011.0
20260509221552 26 123 4.8 20.9 0.00 0.08 0.03 34 1010.9
20260509220052 26 38 4.8 16.1 0.00 0.08 0.03 34 1010.8
20260509214551 26 68 8.0 22.5 0.00 0.08 0.03 32 1010.9
20260509213054 26 126 4.8 19.3 0.00 0.08 0.03 28 1011.0
20260509211559 26 104 8.0 17.7 0.00 0.08 0.03 28 1011.0
20260509210106 26 51 4.8 17.7 0.00 0.08 0.03 32 1011.2
20260509204552 26 73 4.8 20.9 0.00 0.08 0.03 31 1011.3
20260509203053 26 101 9.7 20.9 0.00 0.08 0.03 32 1011.3
20260509201556 26 109 12.9 20.9 0.00 0.08 0.03 34 1011.5
20260509200055 26 105 4.8 19.3 0.00 0.08 0.03 34 1011.8
20260509194550 26 109 6.4 22.5 0.00 0.08 0.03 34 1011.8
20260509193051 26 85 6.4 24.1 0.00 0.08 0.03 31 1011.8
20260509191551 25 111 12.9 22.5 0.00 0.08 0.03 34 1011.9